Weather Roundup
Issued by NWS

Home | Current Version | Previous Version | Text Only | Print | Product List | Glossary On
Versions: 1 2 3 4 5 6 7 8 9 10 11 12 13 14 15 16 17 18 19 20 21 22 23 24 25 26 27 28 29 30 31 32 33 34 35 36 37 38 39 40 41 42 43 44 45 46 47 48 49 50
000
NZUS93 KARX 041259
HRRWXR

CURRENT HOURLY OBSERVATIONS ACROSS
MUCH OF THE UPPER MISSISSIPPI VALLEY
NATIONAL WEATHER SERVICE LA CROSSE WI
800 AM CDT WED MAY 04 2016


...SOUTHEAST MINNESOTA...


CITY           SKY/WX    TMP DP  RH WIND       PRES   REMARKS
ROCHESTER      SUNNY     48  36  63 N13       29.95R
ROCHESTER/MAYO FAIR      47  33  59 NW9       29.94R
WINONA         SUNNY     50  36  57 N9        29.92S
AUSTIN         SUNNY     46  36  66 N10       29.95R
ALBERT LEA     SUNNY     48  34  57 N10       29.97R
DODGE CENTER   SUNNY     46  34  61 N12       29.95R
PRESTON        SUNNY     45  34  66 N10       29.93R
OWATONNA       SUNNY     48  34  57 N10       29.97R
FARIBAULT      NOT AVBL
$$

...ELSEWHERE IN MINNESOTA...


CITY           SKY/WX    TMP DP  RH WIND       PRES   REMARKS
MINNEAPOLIS    SUNNY     51  33  50 N13       29.98R
INTNL FALLS    SUNNY     42  31  64 N12       30.02R
DULUTH         SUNNY     45  32  60 N10       29.95R
RED WING       SUNNY     50  34  53 N7        29.95R
REDWOOD FALLS  SUNNY     48  33  56 N8        30.03R
MANKATO        SUNNY     48  34  57 N10       29.99R
WORTHINGTON    SUNNY     46  36  68 N12       30.04R
FAIRMONT       SUNNY     48  34  57 N10       30.00R
$$

...SOUTHWEST WISCONSIN...


CITY           SKY/WX    TMP DP  RH WIND       PRES   REMARKS
LA CROSSE      SUNNY     49  38  65 N10       29.90R
PRAIRIE DU CHI SUNNY     48  37  65 N13       29.88R
LONE ROCK      NOT AVBL
PLATTEVILLE    MOSUNNY  N/A N/A N/A N20       29.83R
FORT MC COY    SUNNY     46  39  77 NW8       29.89R
MAUSTON-NEW LI SUNNY     45  39  79 N10G18    29.85R
VIROQUA        FAIR      44  39  83 N10       29.87R
WIS DELLS      MOSUNNY   44  37  77 N12G18    29.82R
$$

...ELSEWHERE IN WISCONSIN...


CITY           SKY/WX    TMP DP  RH WIND       PRES   REMARKS
MILWAUKEE      PTSUNNY   45  37  73 N15       29.74R
MADISON        MOSUNNY   45  38  76 N14G21    29.80R
GREEN BAY      CLOUDY    44  37  76 N12       29.77R
EAU CLAIRE     NOT AVBL
BLACK RVR FLS  FAIR      46  36  69 NW6       29.88R
MEDFORD        SUNNY     41  36  82 N9        29.85R
WAUSAU         SUNNY     46  37  71 N10       29.81R
WIS RAPIDS     SUNNY     46  36  68 N14       29.85R
MARSHFIELD     SUNNY     45  37  73 N14       29.84R
RICE LAKE      SUNNY     46  33  61 NW9       29.94R
$$

...NORTHEAST IOWA...


CITY           SKY/WX    TMP DP  RH WIND       PRES   REMARKS
WATERLOO       SUNNY     49  37  63 N18G24    29.91R
DUBUQUE        MOSUNNY   47  44  90 N14G22    29.84R
DECORAH        SUNNY     46  37  71 N12       29.89R
MASON CITY     SUNNY     49  35  58 N17       29.97R
CHARLES CITY   SUNNY     46  36  66 N13G18    29.93R
OELWEIN        SUNNY     48  41  76 N14       29.90R
$$

...ELSEWHERE IN IOWA...


CITY           SKY/WX    TMP DP  RH WIND       PRES   REMARKS
DES MOINES     SUNNY     53  37  54 N12       29.92R
IOWA CITY      SUNNY     51  44  77 N16       29.87R
FORT DODGE     SUNNY     50  34  53 N10G18    29.97R
MARSHALLTOWN   SUNNY     50  39  66 N22G29    29.91R
CEDAR RAPIDS   SUNNY     49  43  80 N16G25    29.86R
$$

...NORTHERN ILLINOIS...


CITY           SKY/WX    TMP DP  RH WIND       PRES   REMARKS
CHICAGO-OHARE  PTSUNNY   48  42  80 N14       29.72R
CHICAGO-MIDWAY PTSUNNY   47  39  74 N20       29.72R
MOLINE         PTSUNNY   51  45  79 N12G20    29.81R
ROCKFORD       CLOUDY    48  42  80 N16       29.79R
PEORIA         MOSUNNY   48  46  93 MISG      29.76R
$$

NOTE: "FAIR" INDICATES FEW OR NO CLOUDS BELOW 12,000 FEET WITH NO
SIGNIFICANT WEATHER AND/OR OBSTRUCTIONS TO VISIBILITY. WIND
SPEEDS ARE IN MILES-PER-HOUR.




USA.gov is the U.S. government's official web portal to all federal, state and local government web resources and services.